If you wish to contribute or participate in the discussions about articles you are invited to join SKYbrary as a registered user

 Actions

Ain Arnat Airport

From SKYbrary Wiki

DAAS
Airport
ICAO: DAAS – IATA: QSF
Summary
Name Ain Arnat Airport
Region Africa
Territory Algeria DZ.gif
Location , Setif
Serving Setif
Elevation 1,024.128 m
3,360 ft
3,360 ft1,024.128 m
Type medium airport
Coordinates 36° 10' 41.16" N, 5° 19' 28.16" E
Runways
Designator Length Width Surface ROPS


METAR
Observation DAAS 252000Z 36008KT 9999 FEW010 BKN026 FEW030CB 11/07 Q1015
Station Setif
Date/Time 25 May 2019 20:00:00
Wind direction 360°
Wind speed 08 kts
Lowest cloud amount few clouds
Temperature 11°C
Dew point 7°C
Humidity 76%
QNH 1015 hPa
Weather condition n/a